This is the latest recevied weather packets stored in our database for station/object N2UGS-WX. If no packets are shown the sender has not sent any weather packets the latest 10 day(s).
| Time | Temp. | Humidity | Pressure | Rain* | Wind** | Luminosity | Snow |
|---|---|---|---|---|---|---|---|
| 1778267642 | 15.56° C | 38% | 1011.9 hPa | 0 mm | - | - | - |
| 1778266803 | 16.11° C | 40% | 1011.9 hPa | 0 mm | - | - | - |
| 1778266143 | 15° C | 42% | 1011.9 hPa | 0 mm | - | - | - |
| 1778265242 | 16.11° C | 44% | 1011.9 hPa | 0 mm | - | - | - |
| 1778264402 | 15.56° C | 44% | 1011.9 hPa | 0 mm | - | - | - |
| 1778263801 | 15° C | 42% | 1012.2 hPa | 0 mm | - | - | - |
| 1778262902 | 15.56° C | 45% | 1012.2 hPa | 0 mm | - | - | - |
| 1778262002 | 15.56° C | 46% | 1012.2 hPa | 0 mm | - | - | - |
| 1778261342 | 15° C | 47% | 1012.2 hPa | 0 mm | - | - | - |
| 1778260501 | 15.56° C | 46% | 1012.2 hPa | 0 mm | - | - | - |
| 1778259603 | 13.89° C | 47% | 1012.2 hPa | 0 mm | - | - | - |
| 1778259002 | 12.78° C | 52% | 1012.5 hPa | 0 mm | - | - | - |
| 1778258342 | 12.22° C | 49% | 1012.5 hPa | 0 mm | - | - | - |
| 1778257502 | 13.33° C | 52% | 1012.5 hPa | 0 mm | - | - | - |
| 1778256603 | 12.78° C | 51% | 1012.9 hPa | 0 mm | - | - | - |
| 1778256002 | 12.78° C | 50% | 1012.9 hPa | 0 mm | - | - | - |
| 1778255102 | 12.22° C | 59% | 1012.9 hPa | 0 mm | - | - | - |
| 1778254203 | 11.11° C | 62% | 1012.9 hPa | 0 mm | - | - | - |
| 1778253303 | 10.56° C | 66% | 1013.2 hPa | 0 mm | - | - | - |
| 1778252403 | 10° C | 72% | 1013.2 hPa | 0 mm | - | - | - |
| 1778251742 | 9.44° C | 73% | 1013.2 hPa | 0 mm | - | - | - |
| 1778250842 | 10° C | 73% | 1013.2 hPa | 0 mm | - | - | - |
| 1778249941 | 9.44° C | 76% | 1013.2 hPa | 0 mm | - | - | - |
| 1778249042 | 8.89° C | 83% | 1013.2 hPa | 0 mm | - | - | - |
| 1778248201 | 7.78° C | 90% | 1013.2 hPa | 0 mm | - | - | - |
* Rain latest hour (hover to see other rain measurements)
** Current wind speed in m/s (hover to see current wind gust speed)